📊 Raw Sensor Data

Showing records 35726 to 35750 of 84,883 total

ID Distance (ft) Battery V Battery A Int Temp (°F) Int Humid (%) Ext Temp (°F) Solar V RSSI SNR Time Stamp
49170 15.5 3.89 0 80 42 75 5.10 -69 8 08/14/2025 11:15 AM
49169 15.5 3.89 0 78 42 79 5.10 -70 8 08/14/2025 11:00 AM
49168 15.5 3.89 0 76 42 74 5.10 -71 7 08/14/2025 10:45 AM
49167 15.5 4.07 0 74 42 75 5.10 -69 7 08/14/2025 10:30 AM
49166 15.5 3.89 0 73 42 73 5.10 -69 7 08/14/2025 10:15 AM
49165 15.5 3.89 0 71 43 72 5.10 -70 7 08/14/2025 10:00 AM
49164 15.5 3.89 0 70 43 69 5.10 -69 7 08/14/2025 09:45 AM
49163 15.5 3.89 0 69 43 69 5.10 -69 7 08/14/2025 09:30 AM
49162 15.5 3.92 0 68 43 69 5.10 -70 8 08/14/2025 09:15 AM
49161 15.5 3.89 0 67 43 69 5.10 -69 8 08/14/2025 08:45 AM
49160 15.5 3.89 0 66 44 68 5.10 -70 8 08/14/2025 08:30 AM
49159 15.5 3.89 0 65 43 67 5.10 -69 8 08/14/2025 08:15 AM
49158 15.4 3.89 0 63 43 68 5.10 -70 8 08/14/2025 08:00 AM
49157 15.4 3.89 0 62 43 66 5.10 -69 8 08/14/2025 07:45 AM
49156 15.4 4.02 10 61 43 64 4.60 -68 8 08/14/2025 07:30 AM
49155 15.1 3.93 8 59 44 63 4.50 -70 8 08/14/2025 07:15 AM
49154 15.2 3.81 0 58 44 59 4.50 -68 7 08/14/2025 07:00 AM
49153 15.2 3.79 0 58 44 58 4.50 -68 7 08/14/2025 06:45 AM
49152 15.2 3.80 -5 58 44 59 1.20 -70 8 08/14/2025 06:15 AM
49151 15.2 3.80 -5 58 44 59 0.20 -69 8 08/14/2025 06:00 AM
49150 15.2 3.80 -5 59 44 59 0.00 -70 8 08/14/2025 05:45 AM
49149 15.2 3.80 -5 59 44 59 0.00 -70 8 08/14/2025 05:30 AM
49148 15.2 3.89 -5 59 44 59 0.00 -70 8 08/14/2025 05:15 AM
49147 15.2 3.89 -5 59 44 59 0.00 -69 8 08/14/2025 05:00 AM
49146 15.2 3.89 -5 59 44 59 0.00 -69 8 08/14/2025 04:45 AM